This is the latest recevied weather packets stored in our database for station/object KC9NPJ-13. If no packets are shown the sender has not sent any weather packets the latest 10 day(s).
| Time | Temp. | Humidity | Pressure | Rain* | Wind** | Luminosity | Snow |
|---|---|---|---|---|---|---|---|
| 1777075487 | 20° C | 77% | 1009.2 hPa | 0 mm | - | - | - |
| 1777075187 | 20.56° C | 76% | 1009.1 hPa | 0 mm | - | - | - |
| 1777074887 | 20.56° C | 74% | 1009.2 hPa | 0 mm | - | - | - |
| 1777074587 | 20.56° C | 74% | 1009.2 hPa | 0 mm | - | - | - |
| 1777074287 | 20.56° C | 73% | 1009.1 hPa | 0 mm | - | - | - |
| 1777073987 | 20.56° C | 73% | 1009.1 hPa | 0 mm | - | - | - |
| 1777073687 | 20.56° C | 74% | 1009 hPa | 0 mm | - | - | - |
| 1777073387 | 20.56° C | 74% | 1009 hPa | 0 mm | - | - | - |
| 1777073087 | 20.56° C | 73% | 1009 hPa | 0 mm | - | - | - |
| 1777072787 | 21.11° C | 72% | 1008.9 hPa | 0 mm | - | - | - |
| 1777072487 | 21.11° C | 70% | 1009 hPa | 0 mm | - | - | - |
| 1777072187 | 21.67° C | 69% | 1008.9 hPa | 0 mm | - | - | - |
| 1777071887 | 22.22° C | 65% | 1008.7 hPa | 0 mm | - | - | - |
| 1777071587 | 22.78° C | 66% | 1008.7 hPa | 0 mm | - | - | - |
| 1777071287 | 22.78° C | 63% | 1008.6 hPa | 0 mm | - | - | - |
| 1777070987 | 22.78° C | 64% | 1008.5 hPa | 0 mm | - | - | - |
| 1777070687 | 23.33° C | 63% | 1008.4 hPa | 0 mm | - | - | - |
| 1777070387 | 22.78° C | 64% | 1008.5 hPa | 0 mm | - | - | - |
| 1777070088 | 22.78° C | 66% | 1008.6 hPa | 0 mm | - | - | - |
| 1777069787 | 22.78° C | 64% | 1008.6 hPa | 0 mm | - | - | - |
| 1777069487 | 22.78° C | 64% | 1008.6 hPa | 0 mm | - | - | - |
| 1777069187 | 22.78° C | 64% | 1008.6 hPa | 0 mm | - | - | - |
| 1777068887 | 22.78° C | 65% | 1008.6 hPa | 0 mm | - | - | - |
| 1777068587 | 22.78° C | 63% | 1008.5 hPa | 0 mm | - | - | - |
| 1777068288 | 22.78° C | 66% | 1008.5 hPa | 0 mm | - | - | - |
* Rain latest hour (hover to see other rain measurements)
** Current wind speed in m/s (hover to see current wind gust speed)